Miscellaneous Local Product
Issued by NWS North Platte, NE

Home | Current Version | Previous Version | Text Only | Print | Product List | Glossary On
Versions: 1 2 3 4 5 6 7 8 9 10 11 12 13 14 15 16 17 18 19 20 21 22 23 24 25 26 27 28 29 30 31 32 33 34 35 36 37 38 39 40 41 42 43 44 45 46 47 48 49 50
000
AXUS43 KLBF 012310
MISLBF


WESTERN AND NORTH CENTRAL NEBRASKA HOURLY WEATHER ROUNDUP
NATIONAL WEATHER SERVICE NORTH PLATTE NE
600 PM CDT FRI AUG 01 2014

***STATIONS NOT REPORTING VARIABLES SUCH AS SKY/WEATHER OR
PRESSURE ARE PROVIDED BY THE NEBRASKA DEPARTMENT OF
ROADS...RAWS...AND APRS NETWORKS...AND ARE NOT UNDER
NATIONAL WEATHER SERVICE QUALITY CONTROL***

...OBSERVATIONS IN AND NEAR THE EASTERN PANHANDLE OF NEBRASKA...

CITY           SKY/WX    TMP DP  RH WIND       PRES   REMARKS
PINE RIDGE     PTSUNNY   85  47  26 NE14G25   30.10S
CHADRON        PTSUNNY   92  37  14 NW8       30.07S
ALLIANCE       MOSUNNY   86  37  17 S8        30.13F
SIDNEY         MOSUNNY   84  40  21 VRB3      30.19S
RUSHVILLE        N/A     96  32  10 S13         N/A  HX  90
CRESCENT LAKE    N/A     90  42  18 CALM        N/A
BIG SPRINGS      N/A     86  51  29 SE3         N/A
$$

...OBSERVATIONS IN NORTH CENTRAL NEBRASKA...

CITY           SKY/WX    TMP DP  RH WIND       PRES   REMARKS
VALENTINE      SUNNY     92  45  19 S6        30.05F
THEDFORD       MOSUNNY   91  49  23 N5        30.10S
AINSWORTH      SUNNY     87  57  35 E9        30.08S
O`NEILL        SUNNY     84  57  38 SE9       30.10S
ORD            SUNNY     83  57  41 SE8       30.08F
BROKEN BOW     SUNNY     86  59  39 SE9       30.09F
SPRINGVIEW       N/A     88  59  37 E3          N/A
SARGENT          N/A     85  58  40 E3          N/A
COMSTOCK         N/A     90  60  36 E6          N/A  HX  90
CHAMBERS         N/A     86  56  35 E6          N/A
EWING            N/A     80  61  51 E3          N/A
$$

...OBSERVATIONS IN SOUTHWEST NEBRASKA AND FAR NORTHEAST COLORADO...

CITY           SKY/WX    TMP DP  RH WIND       PRES   REMARKS
WRAY             N/A     86  47  26 E9        30.15S
HOLYOKE        FAIR      88  43  20 SE7       30.16S
IMPERIAL       SUNNY     90  42  18 NE6       30.12F
OGALLALA       SUNNY     86  52  30 S3        30.11F
NORTH PLATTE   MOSUNNY   89  49  25 CALM      30.09F
MCCOOK         CLOUDY    88  54  31 NE12      30.10S
LEXINGTON      SUNNY     87  56  34 SE7       30.10S
PAXTON           N/A     90  49  24 CALM        N/A
BRADY            N/A     89  54  30 N3          N/A
GOTHENBURG       N/A     87  52  29 SE6         N/A
CALLAWAY         N/A     91  67  45 E5          N/A  HX  94
$$

...SOME WEATHER OBSERVATIONS FROM AROUND THE REGION...

CITY           SKY/WX    TMP DP  RH WIND       PRES   REMARKS
DENVER         PTSUNNY   80  42  25 SE9       30.25F
LARAMIE        SUNNY     72  37  28 SE14      30.35S
CHEYENNE       MOSUNNY   76  43  30 VRB6G20   30.29F
SCOTTSBLUFF    SUNNY     90  39  16 E8        30.14F
RAPID CITY     PTSUNNY   81  49  32 W6        30.09R
PIERRE         SUNNY     90  56  31 E20       29.97F
WINNER         FAIR      93  52  24 SE10      30.02F HX  90
SIOUX FALLS    MOSUNNY   80  60  50 CALM      30.08F
OMAHA          MOSUNNY   82  59  45 E7        30.07F
GRAND ISLAND   SUNNY     83  56  39 NE10      30.10F
KANSAS CITY    MOSUNNY   83  62  49 E9        30.05S
WICHITA        MOSUNNY   91  55  29 N8        30.01F
HAYS           MOSUNNY   88  52  29 NE14      30.07S
LIBERAL        SUNNY     88  50  27 N6        30.13F
GOODLAND       PTSUNNY   84  50  30 S9        30.16S
$$



USA.gov is the U.S. government's official web portal to all federal, state and local government web resources and services.